Wind_Speed
24 23 24 22 22 19 20 23 26 26 25 22 21 15 15 15 17 18 19 18 18 18 18 18 17 15 14 14 15 16 16 15 15 17 18 17 15 15 15 14 14 15 16 16 16 18 18 16 18
26 25 23 23 21 19 21 24 25 22 20 20 19 15 13 16 19 21 19 18 17 16 15 15 16 15 14 14 16 16 15 15 14 15 18 17 16 15 16 16 15 16 16 17 16 17 18 19 18
27 27 24 23 21 22 24 25 21 19 16 19 17 14 13 16 18 19 19 18 17 15 14 12 13 13 14 15 16 15 13 14 13 15 18 18 17 17 17 18 17 20 19 19 17 18 19 21 19
28 28 26 24 24 25 26 24 20 19 18 19 15 13 13 18 20 21 18 16 15 10 10 11 12 14 15 15 16 16 14 13 14 15 17 18 18 18 18 19 19 21 22 22 20 19 21 22 22
30 28 28 26 25 27 28 24 21 20 19 18 15 14 16 22 21 18 17 15 13 11 11 12 12 14 16 16 17 17 16 15 13 16 18 19 20 21 21 22 22 22 21 20 20 18 19 20 21
33 30 29 28 28 29 30 26 22 21 20 16 17 15 18 21 22 22 19 18 15 12 12 12 12 13 14 17 17 17 17 16 16 15 15 19 22 24 25 26 24 24 21 20 20 19 21 21 22
35 33 32 30 31 30 30 28 24 21 21 18 17 19 18 19 23 24 18 19 17 13 13 12 11 12 14 16 17 18 18 19 19 19 19 19 19 21 23 24 25 25 24 22 23 24 25 27 27
37 36 34 31 34 34 28 25 25 23 22 18 17 18 17 15 19 23 18 19 18 14 14 12 11 13 14 15 17 19 19 20 22 23 23 22 22 22 21 22 23 24 26 26 27 29 31 33 33
40 40 34 31 35 35 29 23 23 22 20 17 16 17 15 14 15 21 21 20 17 15 15 13 13 12 13 14 16 19 21 22 23 25 27 27 26 26 25 25 25 26 27 29 31 33 36 37 37
44 41 33 32 37 35 32 25 22 22 18 16 15 18 18 16 16 17 17 17 16 17 18 16 15 12 11 12 15 16 19 22 23 25 27 28 28 28 28 28 28 29 29 32 34 36 38 39 42
47 39 33 36 38 33 33 28 22 21 18 17 17 20 19 19 19 18 15 15 17 20 19 18 19 16 14 15 16 18 19 20 22 23 25 26 27 28 29 29 30 31 33 35 37 39 40 44 45
46 38 36 36 36 34 33 29 23 18 20 17 19 24 24 19 18 18 16 16 18 20 20 21 21 20 19 20 20 21 21 22 21 21 22 23 24 24 26 28 30 32 34 37 42 44 46 46 44
47 42 38 38 39 35 32 29 26 17 24 20 21 23 26 18 15 15 18 18 21 22 22 21 21 20 20 21 21 23 24 23 22 21 21 22 24 25 28 31 35 36 39 41 42 41 40 40 40
46 43 40 43 39 36 29 28 22 30 24 20 19 21 25 21 16 16 18 21 22 23 23 23 25 23 23 22 21 22 25 23 23 22 24 26 28 30 33 36 37 39 37 38 37 36 35 35 35
50 48 46 43 39 35 30 26 26 30 22 19 18 19 25 25 21 19 18 19 20 20 22 23 23 23 24 23 24 25 26 26 26 26 28 30 33 35 36 37 37 36 35 35 34 34 33 34 35
53 53 51 40 38 34 33 25 30 30 26 20 17 18 22 27 26 21 20 20 19 21 22 22 22 23 25 25 24 27 29 29 28 29 32 34 36 37 37 36 35 35 35 35 34 35 36 38 40
57 54 47 40 35 37 33 26 29 29 27 23 19 19 23 25 23 21 22 22 23 22 21 22 25 27 27 28 27 28 30 30 30 33 36 39 39 37 36 35 36 36 36 37 39 40 41 42 44
60 56 43 36 38 37 37 28 27 27 24 21 20 21 25 25 24 23 24 24 24 24 25 28 30 29 28 30 29 29 29 30 33 36 39 39 39 37 36 36 37 38 39 41 42 43 45 46 46
57 44 41 36 40 40 37 29 26 27 22 22 22 22 27 27 25 24 25 25 27 29 31 31 25 26 27 26 26 28 31 33 37 40 40 39 37 37 38 39 40 41 41 43 43 43 43 45 48
49 45 41 41 38 37 37 29 30 30 23 25 23 24 27 26 24 24 25 27 30 33 32 26 25 25 25 26 27 32 34 37 39 38 37 37 37 39 40 41 42 43 43 43 43 45 47 51 55
52 47 41 36 34 37 35 29 31 30 24 27 25 26 25 24 23 24 26 29 31 29 26 22 22 24 24 26 29 32 35 36 35 35 36 37 39 40 41 42 43 42 42 44 47 49 51 54 58
47 43 40 37 33 37 34 29 28 30 27 27 27 27 25 24 23 23 25 26 26 26 26 26 27 26 28 30 31 32 33 34 35 36 38 40 40 42 42 42 41 43 46 48 50 53 57 61 65
42 43 39 37 35 34 31 29 27 31 28 27 29 29 27 25 26 26 26 25 26 26 25 26 27 29 31 32 34 34 34 34 37 39 39 40 41 42 41 42 45 48 50 53 56 61 64 70 72
45 44 39 35 33 31 30 28 27 31 29 28 28 29 28 28 29 29 28 27 27 26 26 28 29 31 32 33 35 35 35 37 38 39 39 40 41 42 44 47 49 52 55 59 62 66 70 73 75
47 43 38 35 34 28 28 29 24 31 28 27 26 27 27 28 27 28 28 28 26 27 29 30 30 31 33 34 34 34 36 38 39 39 40 41 43 45 47 51 54 57 60 65 69 73 74 76 78
47 42 38 35 29 28 30 29 27 25 29 26 25 25 25 25 27 28 29 28 28 29 29 30 31 33 33 33 34 36 36 37 38 39 40 42 44 49 53 57 61 64 67 70 73 75 76 78 80
45 43 39 33 29 29 27 28 25 28 28 27 23 23 25 26 28 28 29 29 28 30 31 31 31 31 33 34 35 35 35 35 36 39 43 47 52 55 59 63 65 68 70 73 75 77 79 82 85
37 38 36 34 29 28 24 27 26 23 26 28 24 23 23 25 26 28 28 29 30 30 29 29 31 32 32 33 33 34 35 37 41 46 50 53 57 60 63 66 68 70 73 76 78 80 83 86 90
42 41 40 34 31 29 24 23 24 23 22 22 23 24 26 27 28 28 28 28 28 28 29 31 31 30 31 32 33 35 39 44 48 52 55 58 62 65 67 69 71 73 76 79 82 85 88 91 94
41 39 35 36 33 30 23 22 22 23 21 22 23 25 27 27 29 27 26 27 28 29 30 30 30 31 32 34 37 41 46 50 53 56 60 63 65 68 70 72 74 77 79 82 85 88 92 94 97
Wind_Direction
250 243 245 249 247 237 234 235 239 239 240 247 255 249 249 248 242 246 247 256 259 263 264 267 271 276 274 278 276 271 268 263 266 258 248 248 249 253 253 251 252 249 256 265 274 281 287 285 289
250 244 240 246 242 234 226 230 236 243 249 251 253 249 243 245 237 242 248 256 264 269 271 272 276 276 271 274 275 275 279 272 273 250 242 249 252 258 261 260 261 261 262 263 272 283 288 282 284
245 245 238 239 236 228 224 227 231 238 241 243 246 248 237 243 237 238 244 254 263 272 275 283 282 276 272 274 276 280 284 279 269 251 245 249 253 261 266 269 267 270 267 266 271 280 284 285 281
246 243 239 236 233 227 228 231 229 234 235 244 250 255 245 240 238 237 248 253 262 263 274 282 280 279 278 281 280 281 284 284 269 255 249 250 255 261 266 273 274 271 273 276 279 283 289 287 280
244 241 239 235 233 230 230 229 232 236 238 247 258 267 249 239 235 232 244 245 252 253 270 273 277 279 282 285 282 278 283 280 281 265 257 256 261 264 269 273 278 281 281 283 285 286 286 285 283
244 239 239 234 234 232 232 229 231 239 244 249 261 270 250 242 232 230 252 241 243 258 263 272 278 279 279 283 284 280 277 281 278 280 274 268 268 268 272 275 278 282 282 283 284 286 282 283 283
241 238 237 234 234 234 233 230 228 237 248 251 259 260 243 236 232 234 244 238 241 250 258 273 288 288 284 284 281 281 278 277 280 277 277 279 278 277 275 276 278 280 279 281 283 284 282 282 282
237 238 233 233 233 236 235 230 228 231 240 250 260 245 231 223 231 228 239 237 238 246 259 271 286 289 286 284 283 279 279 276 274 276 276 275 276 277 278 278 278 280 281 283 285 285 285 287 287
235 236 232 232 236 237 235 228 224 227 236 249 252 229 204 211 221 226 233 232 233 240 260 264 277 288 285 285 286 283 279 277 277 275 274 274 274 277 278 280 280 281 284 286 285 287 287 287 286
234 234 230 230 235 235 237 231 224 224 229 243 233 212 207 217 213 217 230 234 238 242 257 260 268 277 294 307 302 295 291 285 280 277 276 275 278 280 281 282 284 283 284 283 285 285 285 286 285
230 229 230 229 234 231 236 231 225 223 224 234 224 209 212 212 219 219 227 235 243 247 246 254 260 269 286 298 301 301 293 291 285 282 280 278 277 278 280 282 282 282 282 283 283 283 284 283 284
229 228 228 230 233 232 233 230 227 223 227 228 229 223 215 212 221 228 230 238 240 241 246 252 259 269 281 287 296 296 295 290 288 286 284 283 284 284 284 284 282 282 282 282 282 283 284 284 285
226 224 225 228 230 230 230 231 224 222 226 220 230 234 217 216 223 235 239 235 235 242 246 253 264 270 276 283 290 294 294 295 290 287 288 288 288 287 286 285 285 285 285 285 287 286 285 286 286
227 223 223 226 225 225 226 228 217 233 228 230 237 237 217 217 226 240 240 235 236 241 245 251 258 265 272 279 287 292 293 291 289 288 286 286 286 284 284 284 285 285 287 289 288 288 288 287 287
223 220 221 223 222 222 224 225 221 236 232 232 248 234 224 218 230 242 239 233 236 243 249 253 262 270 275 279 285 287 285 283 281 283 287 289 291 292 290 288 287 290 291 288 290 291 291 290 290
220 218 219 220 219 221 224 216 226 230 233 232 242 225 218 216 227 233 233 232 240 248 253 258 265 266 270 276 282 279 280 278 280 287 291 294 297 297 295 292 291 290 290 290 291 290 290 290 290
216 216 217 220 216 221 221 211 231 235 233 235 234 225 217 216 223 228 232 240 249 254 257 265 273 275 269 265 274 276 273 277 285 291 297 300 299 297 294 292 291 290 290 291 292 294 294 295 294
212 213 213 214 218 219 220 209 230 237 234 235 233 232 221 223 225 232 235 248 255 258 266 273 277 273 273 275 274 273 274 283 289 293 296 297 296 295 294 294 294 295 295 296 297 298 297 297 298
214 211 212 212 220 217 220 214 229 240 224 229 229 227 220 222 227 233 242 253 259 265 273 275 273 271 273 277 279 280 281 287 291 294 296 295 295 296 296 298 300 300 300 300 299 300 301 301 301
209 209 209 214 219 218 221 215 225 241 229 229 230 229 220 219 226 235 245 255 262 269 270 267 270 273 274 277 279 280 285 289 291 294 294 295 297 298 301 302 302 302 302 301 302 302 303 305 306
203 206 208 217 219 217 221 214 221 237 234 229 231 224 217 218 229 243 255 262 266 264 261 265 264 266 268 272 275 280 285 289 291 292 295 299 300 302 303 303 301 300 300 300 301 302 303 305 305
202 202 210 215 216 218 217 213 222 235 237 227 229 224 220 226 236 248 258 263 260 262 261 263 268 275 278 279 280 284 288 292 295 296 297 300 302 302 300 298 298 297 297 297 299 301 302 303 305
198 202 211 214 218 216 218 219 224 235 235 227 229 230 232 239 245 253 260 261 259 261 265 270 275 278 281 284 287 289 292 293 294 297 299 299 298 296 294 293 294 296 298 300 303 306 307 307 306
197 206 209 212 220 216 217 217 211 229 231 228 231 231 236 242 250 256 263 262 262 267 273 275 278 281 285 286 287 290 292 294 296 297 296 294 292 293 296 298 300 302 304 305 306 307 307 305 303
197 204 207 213 217 211 214 220 213 225 230 230 234 237 239 243 248 255 260 265 270 273 275 278 280 281 282 285 289 292 295 296 295 295 295 295 296 298 302 305 305 305 306 308 308 306 304 303 303
196 204 209 213 213 211 217 221 216 214 222 231 236 240 242 243 247 252 257 262 267 271 273 275 278 281 285 289 293 294 295 295 295 297 297 298 301 304 306 306 307 308 307 306 305 304 305 304 302
198 205 209 210 213 215 217 220 222 220 227 232 237 240 244 248 253 259 264 268 271 273 276 280 283 286 290 294 295 295 296 296 297 298 300 304 305 306 307 307 306 306 306 305 306 306 304 303 302
200 206 206 204 206 214 208 216 228 225 229 234 237 242 249 254 258 262 266 268 271 276 282 283 287 291 296 296 294 294 295 298 300 302 305 305 306 307 306 306 306 306 307 307 306 305 304 304 305
200 208 207 205 206 209 203 212 226 233 231 237 244 249 253 257 262 264 267 270 275 279 283 287 294 297 294 292 292 296 299 301 303 305 306 306 307 307 306 306 307 307 306 306 306 306 306 307 307
194 208 206 209 211 209 213 216 229 243 243 242 247 252 257 262 265 267 269 274 278 284 288 295 296 293 292 292 297 300 302 303 305 307 307 308 307 306 306 307 307 306 306 306 307 308 308 308 309
Height
5841 5842 5844 5847 5851 5849 5850 5851 5851 5853 5856 5858 5860 5863 5863 5863 5862 5864 5862 5861 5861 5861 5860 5860 5859 5859 5858 5858 5857 5856 5855 5855 5854 5855 5855 5855 5854 5854 5854 5853 5853 5853 5852 5851 5851 5850 5849 5848 5846
5838 5840 5840 5843 5846 5847 5846 5846 5848 5852 5854 5856 5857 5859 5859 5859 5859 5859 5860 5859 5860 5860 5859 5858 5858 5857 5856 5855 5855 5854 5853 5852 5852 5851 5852 5852 5852 5852 5852 5852 5851 5850 5849 5849 5847 5847 5846 5845 5844
5834 5836 5837 5839 5841 5843 5842 5842 5846 5849 5851 5851 5853 5855 5856 5855 5855 5855 5856 5857 5857 5858 5857 5857 5856 5855 5854 5853 5852 5851 5851 5850 5849 5849 5850 5849 5850 5850 5850 5850 5848 5847 5846 5845 5844 5843 5844 5843 5841
5830 5833 5835 5835 5837 5838 5839 5840 5843 5845 5847 5848 5850 5852 5852 5851 5851 5852 5853 5854 5854 5855 5855 5855 5853 5852 5852 5851 5850 5849 5849 5848 5847 5847 5847 5847 5847 5847 5847 5846 5845 5844 5843 5842 5841 5840 5840 5839 5837
5827 5829 5830 5831 5833 5834 5835 5838 5841 5842 5844 5844 5847 5848 5848 5846 5847 5849 5850 5851 5852 5852 5852 5852 5851 5851 5850 5850 5848 5848 5847 5846 5846 5845 5844 5844 5844 5844 5843 5843 5842 5841 5841 5839 5838 5836 5835 5834 5833
5822 5824 5826 5827 5829 5830 5831 5834 5838 5839 5840 5842 5843 5844 5843 5843 5844 5846 5847 5848 5849 5850 5850 5850 5849 5848 5847 5847 5847 5846 5844 5844 5843 5842 5841 5840 5840 5839 5839 5839 5838 5837 5836 5835 5834 5831 5831 5830 5828
5815 5819 5820 5823 5825 5826 5827 5830 5834 5836 5836 5838 5840 5838 5838 5839 5840 5842 5843 5844 5846 5847 5847 5847 5847 5845 5845 5844 5844 5843 5841 5841 5840 5839 5838 5837 5836 5835 5834 5834 5833 5832 5831 5830 5829 5828 5826 5825 5823
5810 5813 5816 5818 5819 5821 5823 5827 5829 5831 5832 5835 5835 5834 5834 5835 5836 5838 5839 5840 5842 5844 5844 5845 5844 5843 5842 5841 5840 5840 5838 5837 5836 5836 5835 5834 5833 5831 5830 5830 5829 5828 5827 5826 5824 5823 5821 5819 5817
5803 5806 5811 5814 5814 5816 5820 5822 5825 5826 5828 5830 5830 5829 5831 5832 5833 5834 5836 5837 5839 5841 5841 5841 5841 5840 5839 5838 5837 5837 5835 5833 5832 5831 5830 5829 5828 5827 5826 5825 5824 5823 5822 5820 5819 5817 5815 5813 5810
5795 5800 5807 5808 5808 5811 5816 5818 5820 5822 5824 5825 5826 5826 5827 5828 5829 5831 5833 5835 5836 5838 5839 5838 5838 5837 5836 5835 5834 5833 5831 5829 5827 5826 5825 5824 5823 5822 5821 5820 5819 5818 5816 5815 5813 5810 5808 5805 5803
5789 5797 5802 5802 5802 5806 5810 5814 5817 5818 5820 5821 5822 5822 5823 5824 5826 5827 5829 5831 5833 5834 5834 5835 5834 5833 5833 5832 5830 5829 5827 5825 5823 5821 5820 5819 5818 5817 5816 5815 5813 5812 5809 5807 5805 5802 5799 5797 5793
5782 5791 5794 5796 5797 5801 5804 5810 5813 5815 5815 5816 5817 5818 5818 5820 5822 5824 5825 5827 5828 5830 5831 5831 5831 5830 5829 5828 5826 5825 5823 5821 5819 5817 5816 5815 5813 5812 5811 5809 5807 5805 5802 5799 5796 5793 5790 5787 5784
5775 5783 5787 5789 5791 5797 5799 5804 5809 5812 5807 5810 5812 5813 5816 5818 5819 5821 5822 5823 5824 5825 5827 5827 5827 5826 5824 5823 5821 5820 5818 5817 5815 5813 5812 5811 5809 5807 5804 5802 5799 5796 5794 5790 5786 5783 5780 5777 5775
5771 5776 5780 5779 5785 5791 5796 5799 5804 5800 5804 5806 5807 5810 5813 5815 5817 5817 5819 5820 5821 5822 5823 5823 5822 5821 5819 5818 5816 5815 5814 5812 5810 5809 5808 5805 5803 5800 5797 5794 5791 5789 5785 5781 5778 5775 5772 5770 5767
5761 5766 5769 5774 5780 5786 5791 5795 5798 5795 5800 5802 5804 5807 5808 5811 5812 5814 5815 5816 5818 5818 5819 5818 5818 5816 5814 5813 5812 5810 5809 5807 5805 5804 5802 5800 5797 5793 5790 5786 5783 5780 5776 5773 5771 5768 5766 5763 5760
5751 5756 5759 5771 5775 5781 5786 5791 5789 5792 5796 5799 5801 5802 5804 5806 5808 5810 5812 5813 5813 5814 5813 5813 5812 5811 5809 5808 5806 5805 5804 5802 5800 5798 5795 5793 5790 5786 5783 5779 5776 5773 5769 5766 5763 5761 5758 5755 5752
5740 5748 5757 5764 5771 5773 5780 5784 5783 5788 5792 5794 5797 5799 5800 5803 5805 5806 5807 5807 5808 5808 5807 5807 5806 5805 5804 5802 5800 5799 5798 5796 5793 5791 5788 5784 5781 5778 5775 5772 5769 5766 5762 5759 5756 5752 5749 5746 5742
5732 5741 5755 5761 5764 5768 5773 5779 5780 5784 5787 5791 5793 5795 5797 5799 5801 5801 5802 5802 5802 5802 5801 5800 5799 5798 5797 5795 5794 5793 5791 5790 5787 5784 5780 5776 5773 5770 5767 5765 5762 5758 5755 5751 5748 5745 5741 5737 5734
5729 5745 5749 5755 5756 5762 5768 5773 5777 5779 5784 5786 5788 5790 5792 5794 5795 5796 5797 5797 5797 5796 5796 5794 5793 5792 5790 5789 5788 5787 5786 5783 5779 5776 5772 5769 5766 5763 5760 5757 5754 5750 5747 5743 5740 5736 5732 5728 5723
5731 5737 5743 5745 5751 5759 5762 5770 5773 5773 5778 5782 5784 5785 5787 5789 5790 5791 5791 5791 5790 5790 5789 5789 5787 5786 5784 5783 5783 5782 5779 5776 5772 5768 5765 5762 5759 5756 5752 5749 5745 5741 5737 5733 5729 5726 5722 5717 5712
5719 5729 5738 5742 5747 5754 5759 5766 5767 5769 5774 5777 5779 5780 5783 5784 5785 5785 5785 5785 5784 5783 5783 5783 5781 5780 5778 5777 5775 5774 5772 5769 5765 5762 5758 5755 5751 5748 5744 5740 5737 5733 5729 5724 5720 5715 5710 5705 5700
5717 5727 5731 5736 5742 5747 5754 5761 5763 5764 5768 5772 5774 5776 5778 5779 5779 5780 5779 5778 5778 5778 5778 5777 5776 5775 5773 5771 5768 5766 5764 5761 5757 5754 5750 5747 5743 5739 5735 5731 5727 5723 5719 5714 5709 5703 5697 5691 5684
5716 5721 5725 5729 5736 5744 5750 5755 5759 5758 5762 5767 5769 5772 5773 5774 5774 5774 5773 5772 5772 5772 5772 5772 5771 5769 5767 5765 5762 5758 5755 5752 5749 5746 5742 5738 5735 5731 5727 5723 5718 5713 5707 5701 5695 5688 5681 5674 5666
5706 5713 5720 5726 5732 5740 5745 5750 5752 5753 5757 5760 5763 5766 5767 5768 5768 5768 5767 5767 5767 5767 5767 5767 5765 5763 5760 5757 5754 5751 5748 5745 5742 5738 5735 5730 5726 5722 5718 5712 5707 5701 5695 5688 5681 5673 5665 5657 5649
5699 5707 5716 5722 5726 5736 5740 5744 5747 5748 5751 5755 5758 5760 5761 5762 5762 5761 5761 5761 5761 5761 5761 5760 5758 5756 5753 5750 5747 5744 5740 5737 5733 5729 5725 5721 5716 5712 5706 5701 5695 5688 5681 5674 5666 5658 5649 5640 5630
5697 5706 5713 5718 5726 5732 5735 5739 5741 5745 5747 5749 5752 5754 5755 5756 5755 5755 5755 5755 5755 5754 5754 5753 5751 5748 5745 5742 5739 5736 5732 5728 5725 5721 5717 5712 5707 5702 5696 5689 5682 5675 5668 5659 5650 5641 5631 5621 5611
5692 5700 5708 5716 5724 5727 5731 5735 5736 5739 5741 5743 5746 5748 5749 5750 5749 5749 5749 5749 5748 5747 5746 5745 5743 5741 5738 5734 5731 5728 5724 5720 5717 5712 5707 5703 5697 5690 5683 5676 5668 5659 5651 5642 5632 5622 5611 5600 5589
5692 5700 5705 5712 5719 5723 5727 5730 5731 5734 5736 5738 5741 5742 5743 5743 5743 5743 5742 5741 5740 5739 5739 5737 5735 5733 5730 5726 5722 5719 5716 5712 5707 5702 5696 5690 5683 5676 5668 5659 5651 5642 5633 5623 5613 5602 5592 5580 5566
5688 5692 5702 5709 5714 5717 5723 5727 5727 5728 5731 5733 5735 5736 5736 5736 5736 5735 5735 5734 5734 5733 5731 5729 5727 5724 5721 5717 5714 5710 5707 5702 5696 5690 5684 5676 5668 5660 5652 5643 5634 5624 5615 5604 5593 5582 5570 5558 5545
5686 5692 5700 5702 5709 5714 5719 5723 5722 5724 5726 5728 5729 5729 5729 5730 5729 5728 5728 5728 5727 5725 5723 5721 5718 5715 5712 5709 5705 5701 5696 5689 5683 5677 5669 5661 5653 5644 5635 5626 5616 5606 5595 5584 5573 5562 5550 5538 5524